Location: Cluj-Napoca
(46.7712°N, 23.6236°E)
Time: 04:57:34
(UTC+03:00)

ISS - Pass Details

Date: 29 March 2020
Orbit: 417 x 423 km, 51.6° (Epoch: 29 March)

Event Time Altitude Azimuth Distance (km) Brightness Sun altitude
Rises 22:45:05 0° 295° (WNW) 2,363 1.2 -27.8°
Reaches altitude 10° 22:47:12 10° 293° (WNW) 1,498 -0.1 -28.0°
Enters shadow 22:48:12 18° 290° (WNW) 1,100 -1.0 -28.1°
